Time,TemperatureF,DewpointF,PressureIn,WindDirection,WindDirectionDegrees,WindSpeedMPH,WindSpeedGustMPH,Humidity,HourlyPrecipIn,Conditions,Clouds,dailyrainin,SolarRadiationWatts/m^2,SoftwareType,DateUTC
2013-08-15 00:02:00,70.0,29.0,-100.00,NE,55,7.0,8.0,22,0.00,,,0.00,1.000000,,2013-08-15 06:02:00,
2013-08-15 00:11:00,70.0,29.0,-100.00,NE,55,7.0,8.0,22,0.00,,,0.00,1.000000,,2013-08-15 06:11:00,
2013-08-15 00:42:00,68.0,29.0,-100.00,ENE,77,7.0,8.0,23,0.00,,,0.00,1.000000,,2013-08-15 06:42:00,
2013-08-15 00:52:00,68.0,29.0,-100.00,ENE,77,7.0,8.0,23,0.00,,,0.00,1.000000,,2013-08-15 06:52:00,
2013-08-15 01:02:00,68.0,29.0,-100.00,ENE,77,7.0,8.0,23,0.00,,,0.00,1.000000,,2013-08-15 07:02:00,
2013-08-15 01:11:00,68.0,29.0,-100.00,ENE,77,7.0,8.0,23,0.00,,,0.00,1.000000,,2013-08-15 07:11:00,
2013-08-15 01:42:00,68.0,30.0,-100.00,East,79,7.0,8.0,24,0.00,,,0.00,1.000000,,2013-08-15 07:42:00,
2013-08-15 01:52:00,68.0,30.0,-100.00,East,79,7.0,8.0,24,0.00,,,0.00,1.000000,,2013-08-15 07:52:00,
2013-08-15 02:02:00,68.0,30.0,-100.00,East,79,7.0,8.0,24,0.00,,,0.00,1.000000,,2013-08-15 08:02:00,
2013-08-15 02:11:00,68.0,30.0,-100.00,East,79,7.0,8.0,24,0.00,,,0.00,1.000000,,2013-08-15 08:11:00,
2013-08-15 02:42:00,68.0,32.0,-100.00,ESE,116,6.0,10.0,26,0.00,,,0.00,1.000000,,2013-08-15 08:42:00,
2013-08-15 02:52:00,68.0,32.0,-100.00,ESE,116,6.0,10.0,26,0.00,,,0.00,1.000000,,2013-08-15 08:52:00,
2013-08-15 03:01:00,68.0,32.0,-100.00,ESE,116,6.0,10.0,26,0.00,,,0.00,1.000000,,2013-08-15 09:01:00,
2013-08-15 03:11:00,68.0,32.0,-100.00,ESE,116,6.0,10.0,26,0.00,,,0.00,1.000000,,2013-08-15 09:11:00,
2013-08-15 03:42:00,66.0,42.0,-100.00,SE,137,5.0,16.0,41,0.00,,,0.00,1.000000,,2013-08-15 09:42:00,
2013-08-15 03:53:00,66.0,42.0,-100.00,SE,137,5.0,16.0,41,0.00,,,0.00,1.000000,,2013-08-15 09:53:00,
2013-08-15 04:03:00,66.0,42.0,-100.00,SE,137,5.0,16.0,41,0.00,,,0.00,1.000000,,2013-08-15 10:03:00,
2013-08-15 04:11:00,66.0,42.0,-100.00,SE,137,5.0,16.0,41,0.00,,,0.00,1.000000,,2013-08-15 10:11:00,
2013-08-15 04:42:00,63.0,38.0,-100.00,ENE,74,4.0,9.0,39,0.00,,,0.00,1.000000,,2013-08-15 10:42:00,
2013-08-15 04:52:00,63.0,38.0,-100.00,ENE,74,4.0,9.0,39,0.00,,,0.00,1.000000,,2013-08-15 10:52:00,
2013-08-15 05:02:00,63.0,38.0,-100.00,ENE,74,4.0,9.0,39,0.00,,,0.00,1.000000,,2013-08-15 11:02:00,
2013-08-15 05:11:00,63.0,38.0,-100.00,ENE,74,4.0,9.0,39,0.00,,,0.00,1.000000,,2013-08-15 11:11:00,
2013-08-15 05:42:00,61.0,41.0,-100.00,NE,52,7.0,8.0,48,0.00,,,0.00,1.000000,,2013-08-15 11:42:00,
2013-08-15 05:52:00,61.0,41.0,-100.00,NE,52,7.0,8.0,48,0.00,,,0.00,1.000000,,2013-08-15 11:52:00,
2013-08-15 06:01:00,61.0,41.0,-100.00,NE,52,7.0,8.0,48,0.00,,,0.00,1.000000,,2013-08-15 12:01:00,
2013-08-15 06:11:00,61.0,41.0,-100.00,NE,52,7.0,8.0,48,0.00,,,0.00,1.000000,,2013-08-15 12:11:00,
2013-08-15 06:42:00,61.0,43.0,-100.00,East,84,8.0,11.0,52,0.00,,,0.00,1.000000,,2013-08-15 12:42:00,
2013-08-15 06:52:00,61.0,43.0,-100.00,East,84,8.0,11.0,52,0.00,,,0.00,1.000000,,2013-08-15 12:52:00,
2013-08-15 07:01:00,61.0,43.0,-100.00,East,84,8.0,11.0,52,0.00,,,0.00,1.000000,,2013-08-15 13:01:00,
2013-08-15 07:11:00,61.0,43.0,-100.00,East,84,8.0,11.0,52,0.00,,,0.00,1.000000,,2013-08-15 13:11:00,
2013-08-15 07:42:00,62.0,41.0,-100.00,ENE,67,9.0,12.0,46,0.00,,,-99.99,18.000000,,2013-08-15 13:42:00,
2013-08-15 07:52:00,62.0,41.0,-100.00,ENE,67,9.0,12.0,46,0.00,,,-99.99,18.000000,,2013-08-15 13:52:00,
2013-08-15 08:01:00,62.0,41.0,-100.00,ENE,67,9.0,12.0,46,0.00,,,-99.99,18.000000,,2013-08-15 14:01:00,
2013-08-15 08:11:00,62.0,41.0,-100.00,ENE,67,9.0,12.0,46,0.00,,,-99.99,18.000000,,2013-08-15 14:11:00,
2013-08-15 09:43:00,73.0,46.0,-100.00,East,101,8.0,14.0,38,0.00,,,0.00,420.000000,,2013-08-15 15:43:00,
2013-08-15 09:54:00,73.0,46.0,-100.00,East,101,8.0,14.0,38,0.00,,,0.00,420.000000,,2013-08-15 15:54:00,
2013-08-15 10:03:00,73.0,46.0,-100.00,East,101,8.0,14.0,38,0.00,,,0.00,420.000000,,2013-08-15 16:03:00,
2013-08-15 10:13:00,73.0,46.0,-100.00,East,101,8.0,14.0,38,0.00,,,0.00,420.000000,,2013-08-15 16:13:00,
2013-08-15 10:15:00,78.0,42.0,-100.00,SSE,155,4.0,11.0,28,0.00,,,0.00,656.000000,,2013-08-15 16:15:00,
2013-08-15 10:44:00,78.0,42.0,-100.00,SSE,155,4.0,11.0,28,0.00,,,0.00,656.000000,,2013-08-15 16:44:00,
2013-08-15 10:55:00,78.0,42.0,-100.00,SSE,155,4.0,11.0,28,0.00,,,0.00,656.000000,,2013-08-15 16:55:00,
2013-08-15 11:06:00,78.0,42.0,-100.00,SSE,155,4.0,11.0,28,0.00,,,0.00,656.000000,,2013-08-15 17:06:00,
2013-08-15 11:15:00,82.0,39.0,-100.00,South,178,3.0,8.0,22,0.00,,,0.00,417.000000,,2013-08-15 17:15:00,
2013-08-15 11:55:00,82.0,39.0,-100.00,South,178,3.0,8.0,22,0.00,,,0.00,417.000000,,2013-08-15 17:55:00,
2013-08-15 12:10:00,82.0,39.0,-100.00,South,178,3.0,8.0,22,0.00,,,0.00,417.000000,,2013-08-15 18:10:00,
2013-08-15 12:15:00,83.0,32.0,-100.00,NNW,329,7.0,13.0,16,0.00,,,0.00,995.000000,,2013-08-15 18:15:00,
2013-08-15 13:06:00,-999.0,-99.9,-100.00,NNW,329,7.0,13.0,-999,0.00,,,0.00,995.000000,,2013-08-15 19:06:00,
2013-08-15 13:49:00,86.0,31.0,-100.00,NNW,338,8.0,20.0,14,0.00,,,0.00,1100.000000,,2013-08-15 19:49:00,
2013-08-15 14:09:00,86.0,31.0,-100.00,NNW,338,8.0,20.0,14,0.00,,,0.00,1100.000000,,2013-08-15 20:09:00,
2013-08-15 15:15:00,87.0,24.0,-100.00,NNW,327,8.0,20.0,10,0.00,,,0.00,1100.000000,,2013-08-15 21:15:00,
2013-08-15 15:49:00,87.0,24.0,-100.00,NNW,327,8.0,20.0,10,0.00,,,0.00,1100.000000,,2013-08-15 21:49:00,
2013-08-15 15:57:00,87.0,24.0,-100.00,NNW,327,8.0,20.0,10,0.00,,,0.00,1100.000000,,2013-08-15 21:57:00,
2013-08-15 16:09:00,87.0,24.0,-100.00,NNW,327,8.0,20.0,10,0.00,,,0.00,1100.000000,,2013-08-15 22:09:00,
2013-08-15 16:15:00,87.0,21.0,-100.00,NW,306,8.0,21.0,9,0.00,,,0.00,973.000000,,2013-08-15 22:15:00,
2013-08-15 16:58:00,87.0,21.0,-100.00,NW,306,8.0,21.0,9,0.00,,,0.00,973.000000,,2013-08-15 22:58:00,
2013-08-15 17:07:00,87.0,21.0,-100.00,NW,306,8.0,21.0,9,0.00,,,0.00,973.000000,,2013-08-15 23:07:00,
2013-08-15 17:48:00,87.0,19.0,-100.00,WNW,291,8.0,22.0,8,0.00,,,0.00,784.000000,,2013-08-15 23:48:00,
2013-08-15 17:55:00,87.0,19.0,-100.00,WNW,291,8.0,22.0,8,0.00,,,0.00,784.000000,,2013-08-15 23:55:00,
2013-08-15 18:08:00,87.0,19.0,-100.00,WNW,291,8.0,22.0,8,0.00,,,0.00,784.000000,,2013-08-16 00:08:00,
2013-08-15 18:15:00,86.0,21.0,-100.00,West,278,7.0,17.0,9,0.00,,,0.00,547.000000,,2013-08-16 00:15:00,
2013-08-15 18:46:00,86.0,21.0,-100.00,West,278,7.0,17.0,9,0.00,,,0.00,547.000000,,2013-08-16 00:46:00,
2013-08-15 18:52:00,86.0,21.0,-100.00,West,278,7.0,17.0,9,0.00,,,0.00,547.000000,,2013-08-16 00:52:00,
2013-08-15 19:03:00,86.0,21.0,-100.00,West,278,7.0,17.0,9,0.00,,,0.00,547.000000,,2013-08-16 01:03:00,
2013-08-15 19:43:00,-999.0,-99.9,-100.00,WSW,246,9.0,-999.0,-999,-99.99,,,-99.99,,,2013-08-16 01:43:00,
2013-08-15 19:54:00,84.0,16.0,-100.00,WSW,246,9.0,14.0,8,0.00,,,0.00,293.000000,,2013-08-16 01:54:00,
2013-08-15 20:02:00,84.0,16.0,-100.00,WSW,246,9.0,14.0,8,0.00,,,0.00,293.000000,,2013-08-16 02:02:00,
2013-08-15 20:12:00,84.0,16.0,-100.00,WSW,246,9.0,14.0,8,0.00,,,0.00,293.000000,,2013-08-16 02:12:00,
2013-08-15 20:52:00,76.0,22.0,-100.00,West,265,5.0,12.0,13,0.00,,,0.00,63.000000,,2013-08-16 02:52:00,
2013-08-15 21:03:00,76.0,22.0,-100.00,West,265,5.0,12.0,13,0.00,,,0.00,63.000000,,2013-08-16 03:03:00,
2013-08-15 21:11:00,76.0,22.0,-100.00,West,265,5.0,12.0,13,0.00,,,0.00,63.000000,,2013-08-16 03:11:00,
2013-08-15 21:43:00,73.0,26.0,-100.00,WSW,244,4.0,7.0,17,0.00,,,0.00,1.000000,,2013-08-16 03:43:00,
2013-08-15 21:53:00,73.0,26.0,-100.00,WSW,244,4.0,7.0,17,0.00,,,0.00,1.000000,,2013-08-16 03:53:00,
2013-08-15 22:03:00,73.0,26.0,-100.00,WSW,244,4.0,7.0,17,0.00,,,0.00,1.000000,,2013-08-16 04:03:00,
2013-08-15 22:13:00,73.0,26.0,-100.00,WSW,244,4.0,7.0,17,0.00,,,0.00,1.000000,,2013-08-16 04:13:00,
2013-08-15 22:43:00,73.0,26.0,-100.00,SSW,197,3.0,6.0,17,0.00,,,0.00,1.000000,,2013-08-16 04:43:00,
2013-08-15 22:53:00,73.0,26.0,-100.00,SSW,197,3.0,6.0,17,0.00,,,0.00,1.000000,,2013-08-16 04:53:00,
2013-08-15 23:02:00,73.0,26.0,-100.00,SSW,197,3.0,6.0,17,0.00,,,0.00,1.000000,,2013-08-16 05:02:00,
2013-08-15 23:11:00,73.0,26.0,-100.00,SSW,197,3.0,6.0,17,0.00,,,0.00,1.000000,,2013-08-16 05:11:00,
2013-08-15 23:42:00,70.0,32.0,-100.00,West,272,8.0,11.0,24,0.00,,,0.00,1.000000,,2013-08-16 05:42:00,